Location: Martley
(52.2333°N, 2.3667°W)
Time: 02:06:11
(UTC+00:00)

Cosmos 2263 Rocket - Pass Details

Date: 11 December 2019
Orbit: 824 x 848 km, 71.0° (Epoch: 20 January)

Event Time Altitude Azimuth Distance (km) Brightness Sun altitude
Rises 06:23:55 0° 228° (SW) 3,360 5.0 -14.8°
Reaches altitude 10° 06:26:26 10° 234° (SW) 2,428 4.3 -14.5°
Maximum altitude 06:31:49 49° 309° (NW) 1,056 2.3 -13.7°
Drops below altitude 10° 06:37:14 10° 24° (NNE) 2,437 4.6 -12.9°
Sets 06:39:46 0° 30° (NNE) 3,374 5.5 -12.6°
